TimeNDT,TemperatureF,Dew PointF,Humidity,Sea Level PressureIn,VisibilityMPH,Wind Direction,Wind SpeedMPH,Gust SpeedMPH,PrecipitationIn,Events,Conditions,WindDirDegrees,DateUTC
12:30 AM,55,54,93,29.67,,SSE,2.3,,,,,150,2012-11-03 03:00:00
12:30 AM,55.2,53.6,94,29.67,-9999.0,SSE,2.3,-,N/A,,Unknown,150,2012-11-03 03:00:00
1:30 AM,55.4,53.8,94,29.66,-9999.0,North,3.5,-,N/A,,Unknown,10,2012-11-03 04:00:00
2:30 AM,55.6,54.0,94,29.64,-9999.0,WNW,4.6,-,N/A,,Unknown,290,2012-11-03 05:00:00
3:30 AM,56,54,90,29.62,,NNE,5.8,,,,,30,2012-11-03 06:00:00
3:30 AM,55.8,54.0,94,29.62,-9999.0,NNE,5.8,-,N/A,,Unknown,30,2012-11-03 06:00:00
4:30 AM,56.1,54.3,94,29.57,-9999.0,ESE,16.1,-,N/A,,Unknown,110,2012-11-03 07:00:00
5:30 AM,56.3,54.1,92,29.55,-9999.0,East,16.1,-,0.03,,Unknown,100,2012-11-03 08:00:00
6:30 AM,56,54,90,29.53,,ESE,19.6,,,,,120,2012-11-03 09:00:00
6:30 AM,55.9,53.8,92,29.53,-9999.0,ESE,19.6,-,0.09,,Unknown,120,2012-11-03 09:00:00
7:30 AM,56.3,54.3,93,29.50,-9999.0,SE,16.1,-,0.03,,Unknown,140,2012-11-03 10:00:00
8:30 AM,56.8,54.5,92,29.49,-9999.0,SSE,21.9,32.2,N/A,,Unknown,150,2012-11-03 11:00:00
9:30 AM,57,55,90,29.50,,SSE,20.7,,,,,150,2012-11-03 12:00:00
9:30 AM,57.0,54.9,92,29.50,-9999.0,SSE,20.7,29.9,N/A,,Unknown,150,2012-11-03 12:00:00
10:30 AM,58.3,55.9,92,29.50,-9999.0,South,16.1,-,N/A,,Unknown,170,2012-11-03 13:00:00
11:30 AM,58.1,55.8,92,29.51,-9999.0,South,15.0,21.9,N/A,,Unknown,180,2012-11-03 14:00:00
12:30 PM,58,55,85,29.51,,SSW,13.8,,,,,200,2012-11-03 15:00:00
12:30 PM,57.7,54.7,90,29.51,-9999.0,SSW,13.8,-,N/A,,Unknown,200,2012-11-03 15:00:00
1:30 PM,55.8,52.5,89,29.53,-9999.0,SSW,18.4,-,N/A,,Unknown,200,2012-11-03 16:00:00
2:30 PM,54.0,51.3,91,29.54,-9999.0,SSW,16.1,-,N/A,,Unknown,210,2012-11-03 17:00:00
3:30 PM,53,51,90,29.56,,SSW,15.0,,,,,210,2012-11-03 18:00:00
3:30 PM,52.9,50.9,93,29.56,-9999.0,SSW,15.0,20.7,N/A,,Unknown,210,2012-11-03 18:00:00
4:30 PM,52.2,50.5,94,29.57,-9999.0,SSW,8.1,-,N/A,,Unknown,210,2012-11-03 19:00:00
5:30 PM,51.3,49.8,95,29.57,-9999.0,SSW,4.6,-,N/A,,Unknown,210,2012-11-03 20:00:00
6:30 PM,55,53,89,29.55,,SE,6.9,,,,,130,2012-11-03 21:00:00
6:30 PM,54.7,52.7,93,29.55,-9999.0,SE,6.9,-,N/A,,Unknown,130,2012-11-03 21:00:00
7:30 PM,53.6,52.0,94,29.54,-9999.0,NE,4.6,-,N/A,,Unknown,40,2012-11-03 22:00:00
8:30 PM,54.0,52.5,95,29.51,-9999.0,NE,8.1,-,0.11,,Unknown,50,2012-11-03 23:00:00
9:30 PM,56,54,90,29.49,,ESE,17.3,,,,,110,2012-11-04 00:00:00
9:30 PM,55.8,54.0,94,29.49,-9999.0,ESE,17.3,27.6,0.11,,Unknown,110,2012-11-04 00:00:00
10:30 PM,55.6,53.4,92,29.46,-9999.0,ESE,19.6,-,0.21,,Unknown,120,2012-11-04 01:00:00
11:30 PM,56.1,54.0,92,29.42,-9999.0,ESE,13.8,19.6,0.04,,Unknown,120,2012-11-04 02:00:00